[[{"header":{"parameterUnit":"m.s-1","parameterCategory":2,"la1":30.2991,"la2":30.254,"lo1":-89.0895,"lo2":-89.0444,"dy":0.0017,"dx":0.0017,"nx":28,"ny":28,"refTime":"2023-03-29T21:00:00:Z","depth":"0","parameterNumber":2,"parameterNumberName":"U-component_of_CURRENTS"},"data":[0,0,0,0,0,0,0,0,0,0,0,0,0,0,0,0,0,0,0,0,0,0,0,0,0,0,0,0,0,0,0,0,0,0,0,0,0,0,0,0,0,0,0,0,0,0,0,0,0,0,0,0,0,0,0,0,0,0,0.3075,0.3075,0,0.307,0.307,0.3071,0.3049,0.3049,0.3048,0.3047,0.2988,0.2987,0.2986,0,0,0,0,0,0,0,0,0,0,0,0,0,0.3066,0.3067,0.3075,0.3075,0.3075,0.307,0.307,0.3071,0.305,0.3049,0.3048,0.3047,0.2988,0.2987,0.2986,0,0,0,0,0,0,0,0,0,0,0,0,0,0.3069,0.3067,0.3075,0.3061,0.306,0.307,0.307,0.3071,0.305,0.3049,0.3047,0.3046,0.2989,0.2987,0.2986,0.3001,0,0,0.2982,0.2982,0,0,0,0,0,0,0,0,0.3069,0.307,0.3064,0.3062,0.3061,0.3057,0.3045,0.3044,0.305,0.3057,0.3047,0.3046,0.3005,0.3002,0.3009,0.2998,0.2995,0.2982,0.2981,0.2981,0.298,0,0,0,0,0,0,0,0.3069,0.307,0.3076,0.3063,0.3062,0.3055,0.3055,0.3045,0.3038,0.3056,0.3054,0.3049,0.3004,0.301,0.3007,0.2995,0.2982,0.2981,0.298,0.298,0.3036,0.3038,0,0,0,0,0,0,0.3065,0.307,0.3076,0.3076,0.3059,0.3056,0.3056,0.3062,0.304,0.3035,0.305,0.3048,0.3013,0.3009,0.3005,0.3051,0.2981,0.2979,0.2979,0.3034,0.3036,0.3039,0,0,0,0,0,0,0.3065,0.3067,0.3076,0.307,0.307,0.3057,0.3064,0.3062,0.3075,0.3035,0.303,0.3065,0.3012,0.3006,0.3003,0.3047,0.2979,0.2978,0.3031,0.3034,0.3038,0.3123,0,0,0,0,0,0,0.3065,0.3067,0.3083,0.307,0.307,0.3095,0.3065,0.3063,0.3071,0.3069,0.3046,0.3039,0.3011,0.3005,0.3002,0.3044,0.2977,0.3028,0.3032,0.3036,0.3118,0.3129,0.3139,0,0,0,0,0,0.3065,0.3087,0.3084,0.3085,0.3089,0.3096,0.3097,0.3085,0.3073,0.3091,0.3068,0.304,0.3031,0.3005,0.3001,0.3044,0.3026,0.3031,0.3036,0.3113,0.3127,0.3139,0,0,0,0,0,0,0.3104,0.3087,0.3083,0.3103,0.3105,0.3092,0.3107,0.3098,0.3097,0.3093,0.3055,0.3047,0.3055,0.3046,0.3019,0.3076,0.303,0.3035,0.309,0.3103,0.3114,0.3114,0.2976,0,0,0,0,0,0.3118,0.3119,0.3113,0.313,0.3136,0.3127,0.3131,0.3123,0.3113,0.3113,0.3089,0.3079,0.3076,0.3084,0.3066,0.3101,0.3122,0.3133,0.3144,0.3153,0.3153,0.323,0.3248,0.3056,0.3056,0.3055,0,0,0.3132,0.3126,0.3126,0.3136,0.3138,0.3153,0.3128,0.3142,0.3153,0.3106,0.3115,0.3099,0.3087,0.3113,0.3122,0.3113,0.3226,0.3159,0.3167,0.3162,0.3237,0.3256,0.3273,0.3059,0.3058,0.3058,0,0,0.3154,0.3166,0.3172,0.3181,0.3186,0.3184,0.3192,0.3187,0.3189,0.3198,0.3168,0.3183,0.3175,0.3185,0.3188,0.3256,0.3262,0.3262,0.3336,0.3413,0.3429,0.3443,0.3523,0.3543,0.329,0.329,0.329,0,0.317,0.3179,0.318,0.3196,0.3199,0.3201,0.3216,0.3231,0.3221,0.3231,0.321,0.3225,0.3212,0.3262,0.3288,0.328,0.3325,0.3285,0.3427,0.3442,0.3455,0.3532,0.3554,0.3295,0.3294,0.3294,0.3293,0,0.319,0.3207,0.3218,0.3231,0.3248,0.326,0.3274,0.3295,0.3294,0.3301,0.3332,0.3325,0.334,0.3356,0.3341,0.3439,0.3442,0.3414,0.3392,0.348,0.3556,0.3577,0.3302,0.33,0.3299,0.3297,0,0,0.3172,0.3218,0.3217,0.3227,0.326,0.3266,0.3314,0.3344,0.3367,0.339,0.3424,0.3452,0.3457,0.3462,0.3463,0.354,0.3683,0.3532,0.3534,0.3608,0.3871,0.3921,0.3949,0.3688,0.3692,0.3695,0.3897,0,0.3175,0.3206,0.3228,0.3254,0.327,0.3299,0.3334,0.3371,0.34,0.344,0.3483,0.3505,0.3499,0.3513,0.3596,0.3633,0.3738,0.3631,0.3777,0.3781,0.3813,0.3975,0.3889,0.4066,0.3917,0.3921,0.3923,0,0.3162,0.3188,0.3214,0.3253,0.3262,0.3283,0.3331,0.3364,0.3447,0.3472,0.3541,0.356,0.3665,0.364,0.3813,0.3749,0.383,0.3875,0.3883,0.3909,0.3871,0.395,0.4109,0.3942,0.3955,0.3953,0.3951,0,0.3112,0.3162,0.3176,0.3189,0.3248,0.3266,0.33,0.3373,0.3398,0.3502,0.3537,0.3651,0.3709,0.3825,0.3931,0.3888,0.4124,0.4069,0.4201,0.4205,0.4148,0.4141,0.4156,0.4226,0.4225,0.4225,0.4224,0,0.308,0.3085,0.3153,0.3157,0.3172,0.3234,0.3258,0.3314,0.3397,0.3446,0.3549,0.3617,0.3761,0.3899,0.3986,0.4182,0.4186,0.4257,0.428,0.418,0.4174,0.4034,0.393,0.4232,0.4231,0.4229,0.4228,0,0.3002,0.3052,0.306,0.3125,0.3142,0.315,0.3212,0.3237,0.3337,0.3411,0.345,0.3624,0.3827,0.3977,0.4184,0.4264,0.4317,0.4488,0.4369,0.4376,0.4329,0.4233,0.4198,0.4072,0.4677,0.4679,0.4682,0,0.296,0.296,0.3008,0.301,0.3031,0.3063,0.3083,0.3186,0.3227,0.3413,0.3449,0.3678,0.3832,0.4174,0.4368,0.4593,0.4412,0.4646,0.4549,0.4364,0.4273,0.4084,0.3962,0.4515,0.4515,0.4516,0.4517,0,0.2867,0.2879,0.2889,0.2905,0.2919,0.2937,0.2992,0.3008,0.3152,0.3259,0.3428,0.3574,0.3946,0.4164,0.4488,0.4613,0.4414,0.4668,0.4499,0.4193,0.3962,0.3837,0.4336,0.4522,0.4522,0.4521,0.4521,0.4521,0.2771,0.2755,0.2771,0.2771,0.2788,0.2795,0.2781,0.2876,0.2956,0.3097,0.3326,0.3543,0.3911,0.4363,0.4476,0.4589,0.4482,0.4499,0.4419,0.4259,0.4067,0.46,0.479,0.4791,0.4792,0.4793,0.4794,0,0.2638,0.2642,0.2639,0.2632,0.2605,0.2669,0.2697,0.2686,0.2751,0.299,0.3166,0.3572,0.3828,0.4123,0.4413,0.4342,0.4157,0.4201,0.3861,0.3768,0.4284,0.4203,0.4246,0.4246,0.4246,0.4246,0.4246,0.4246,0.2564,0.252,0.2527,0.2448,0.2448,0.2387,0.2379,0.2411,0.2541,0.2767,0.3022,0.3287,0.3689,0.4003,0.4073,0.4017,0.3659,0.356,0.345,0.3753,0.377,0.3786,0.3684,0.3616,0.3616,0.282,0.2813,0.2808]},{"header":{"parameterUnit":"m.s-1","parameterCategory":2,"la1":30.2991,"la2":30.254,"lo1":-89.0895,"lo2":-89.0444,"dy":0.0017,"dx":0.0017,"nx":28,"ny":28,"refTime":"2023-03-29T21:00:00:Z","depth":"0","parameterNumber":3,"parameterNumberName":"V-component_of_CURRENTS"},"data":[0,0,0,0,0,0,0,0,0,0,0,0,0,0,0,0,0,0,0,0,0,0,0,0,0,0,0,0,0,0,0,0,0,0,0,0,0,0,0,0,0,0,0,0,0,0,0,0,0,0,0,0,0,0,0,0,0,0,-0.021,-0.0212,0,-0.0399,-0.0402,-0.0405,-0.0549,-0.055,-0.055,-0.0551,-0.0854,-0.0861,-0.0869,0,0,0,0,0,0,0,0,0,0,0,0,0,-0.0157,-0.0157,-0.021,-0.0212,-0.0213,-0.0399,-0.0402,-0.0406,-0.0549,-0.055,-0.055,-0.0551,-0.0852,-0.086,-0.087,0,0,0,0,0,0,0,0,0,0,0,0,0,-0.0254,-0.0157,-0.021,-0.0301,-0.031,-0.0398,-0.0403,-0.0407,-0.0549,-0.055,-0.0551,-0.0551,-0.0849,-0.086,-0.0871,-0.0926,0,0,-0.0906,-0.0911,0,0,0,0,0,0,0,0,-0.0248,-0.0257,-0.0286,-0.0295,-0.0305,-0.0444,-0.0494,-0.0583,-0.0549,-0.0468,-0.0551,-0.0552,-0.0721,-0.0743,-0.0788,-0.094,-0.0953,-0.0907,-0.0914,-0.0918,-0.0922,0,0,0,0,0,0,0,-0.0241,-0.0251,-0.0294,-0.0287,-0.0299,-0.0394,-0.0408,-0.0513,-0.0597,-0.0475,-0.0484,-0.049,-0.0729,-0.0776,-0.0796,-0.0957,-0.0906,-0.0916,-0.0923,-0.0928,-0.1076,-0.1074,0,0,0,0,0,0,-0.0189,-0.0243,-0.0288,-0.0299,-0.0268,-0.0393,-0.0409,-0.0406,-0.0593,-0.0619,-0.0489,-0.0496,-0.0757,-0.0783,-0.0807,-0.0812,-0.0918,-0.0929,-0.0936,-0.1079,-0.1076,-0.1073,0,0,0,0,0,0,-0.0187,-0.0191,-0.028,-0.027,-0.0286,-0.0391,-0.0387,-0.0409,-0.0444,-0.0601,-0.0632,-0.0499,-0.0758,-0.0791,-0.0862,-0.0828,-0.0934,-0.0945,-0.1083,-0.1078,-0.1074,-0.0868,0,0,0,0,0,0,-0.0185,-0.0189,-0.0177,-0.0265,-0.0284,-0.0312,-0.0386,-0.0412,-0.0443,-0.0454,-0.062,-0.065,-0.0761,-0.0843,-0.0873,-0.0846,-0.0953,-0.1086,-0.1081,-0.1075,-0.0879,-0.0857,-0.0839,0,0,0,0,0,-0.0182,-0.016,-0.0175,-0.0181,-0.0261,-0.031,-0.033,-0.0415,-0.0442,-0.0451,-0.0541,-0.0644,-0.0829,-0.085,-0.0886,-0.0861,-0.1089,-0.1082,-0.1076,-0.0888,-0.0862,-0.084,0,0,0,0,0,0,-0.0136,-0.0174,-0.0193,-0.0184,-0.0229,-0.0331,-0.0349,-0.0392,-0.0472,-0.0484,-0.0625,-0.066,-0.0706,-0.0801,-0.082,-0.0881,-0.097,-0.097,-0.0814,-0.0792,-0.0772,-0.0737,-0.0963,0,0,0,0,0,-0.0111,-0.0102,-0.0156,-0.0148,-0.0163,-0.0247,-0.0277,-0.0326,-0.0402,-0.0439,-0.0539,-0.0636,-0.0709,-0.0761,-0.0851,-0.0896,-0.0951,-0.0894,-0.0874,-0.0857,-0.0848,-0.0871,-0.0852,-0.1051,-0.1051,-0.1051,0,0,-0.0093,-0.0108,-0.0107,-0.0137,-0.0185,-0.02,-0.027,-0.0301,-0.0309,-0.046,-0.0501,-0.0579,-0.0702,-0.0744,-0.0773,-0.0821,-0.0823,-0.0849,-0.0834,-0.0834,-0.0862,-0.0843,-0.0826,-0.1047,-0.1048,-0.1048,0,0,-0.0056,-0.006,-0.0048,-0.0071,-0.0112,-0.0157,-0.0148,-0.0224,-0.0254,-0.0294,-0.0384,-0.0423,-0.0562,-0.0621,-0.0675,-0.0597,-0.0714,-0.0625,-0.0513,-0.0533,-0.0517,-0.0504,-0.0522,-0.0512,-0.0619,-0.0619,-0.0619,0,-0.0038,-0.0019,-0.0054,-0.0049,-0.0056,-0.012,-0.0112,-0.015,-0.0233,-0.0237,-0.0279,-0.0399,-0.0499,-0.0527,-0.0493,-0.0554,-0.0586,-0.0595,-0.0507,-0.0495,-0.0485,-0.0508,-0.05,-0.0608,-0.061,-0.0611,-0.0612,0,0.0001,0.0017,0.0025,0.0019,0.0008,0.0007,-0.003,-0.0037,-0.0066,-0.0104,-0.0121,-0.0227,-0.0297,-0.0317,-0.0392,-0.0359,-0.0409,-0.0474,-0.0565,-0.0452,-0.0484,-0.0478,-0.0593,-0.0597,-0.06,-0.0603,0,0,0.0036,0.0048,0.0052,0.0069,0.005,0.0046,0.0063,0.0057,0.008,0.0027,0.0053,-0.003,-0.0068,-0.0126,-0.0205,-0.0214,-0.0158,-0.0297,-0.0304,-0.0311,-0.0194,-0.0224,-0.0223,-0.0207,-0.0206,-0.0205,-0.0235,0,0.0071,0.0109,0.0106,0.0147,0.0164,0.0143,0.0168,0.0163,0.0147,0.0157,0.0101,0.0077,-0.0003,-0.0022,-0.0034,-0.0139,-0.014,-0.0144,-0.0308,-0.0312,-0.0349,-0.0216,-0.0188,-0.0212,-0.0232,-0.0231,-0.0231,0,0.0106,0.0133,0.0181,0.0228,0.0236,0.0254,0.0299,0.0313,0.0319,0.031,0.0299,0.0238,0.0221,0.0137,0.0049,0.005,-0.0043,-0.0117,-0.0122,-0.0222,-0.0332,-0.0335,-0.0205,-0.0456,-0.0225,-0.0225,-0.0226,0,0.0147,0.0189,0.0238,0.0249,0.0286,0.0318,0.0341,0.0361,0.0396,0.041,0.0433,0.0386,0.0366,0.0265,0.0115,0.0084,0.0017,-0.0063,-0.0172,-0.0177,-0.0222,-0.0233,-0.0354,-0.0107,-0.0107,-0.0107,-0.0107,0,0.0189,0.023,0.0263,0.029,0.0365,0.0374,0.0449,0.0469,0.0511,0.058,0.0516,0.0555,0.04,0.0331,0.0182,0.0037,0.0062,-0.0118,-0.0172,-0.0147,-0.015,-0.0434,-0.0564,-0.0108,-0.0108,-0.0107,-0.0107,0,0.0223,0.0243,0.0304,0.0359,0.0383,0.0437,0.0516,0.0577,0.0605,0.0695,0.0709,0.0688,0.0619,0.045,0.0286,0.0126,-0.014,-0.009,-0.0045,-0.0091,-0.0433,-0.0551,-0.0702,-0.0784,-0.0201,-0.0202,-0.0202,0,0.0244,0.0276,0.0351,0.04,0.0428,0.0504,0.0569,0.0619,0.0693,0.0786,0.0845,0.0813,0.0822,0.0574,0.031,0.0068,-0.0149,-0.0109,-0.0165,-0.0414,-0.0587,-0.0666,-0.073,-0.0139,-0.0139,-0.0139,-0.0139,0,0.0284,0.0307,0.0359,0.0457,0.0533,0.0623,0.0718,0.0791,0.0879,0.0966,0.1078,0.1098,0.0895,0.07,0.0357,0.0154,-0.026,-0.0119,-0.0385,-0.0535,-0.062,-0.0737,-0.017,-0.0139,-0.0139,-0.0139,-0.0139,-0.0139,0.031,0.0356,0.0426,0.0524,0.0617,0.0744,0.0831,0.0953,0.1096,0.1262,0.1263,0.1357,0.104,0.0604,0.0274,-0.0302,-0.0281,-0.0481,-0.0597,-0.0651,-0.0743,-0.017,-0.0204,-0.0205,-0.0205,-0.0205,-0.0205,0,0.0344,0.0402,0.0493,0.0615,0.0728,0.0772,0.0939,0.1042,0.1232,0.1411,0.1521,0.1477,0.1019,0.0523,-0.0212,-0.0683,-0.0846,-0.0951,-0.1072,-0.1109,-0.0607,-0.0622,-0.0738,-0.0738,-0.0738,-0.0737,-0.0737,-0.0737,0.0365,0.0451,0.0503,0.0686,0.0783,0.0944,0.1047,0.1212,0.1368,0.1612,0.1745,0.1815,0.1463,0.0073,-0.0968,-0.122,-0.1534,-0.1577,-0.1755,-0.1459,-0.1425,-0.1393,-0.144,-0.1726,-0.1727,-0.2181,-0.2186,-0.219]}],[{"header":{"parameterUnit":"m.s-1","parameterCategory":2,"la1":30.2991,"la2":30.254,"lo1":-89.0895,"lo2":-89.0444,"dy":0.0017,"dx":0.0017,"nx":28,"ny":28,"refTime":"2023-03-29T21:00:00:Z","depth":"2","parameterNumber":2,"parameterNumberName":"U-component_of_CURRENTS"},"data":[0,0,0,0,0,0,0,0,0,0,0,0,0,0,0,0,0,0,0,0,0,0,0,0,0,0,0,0,0,0,0,0,0,0,0,0,0,0,0,0,0,0,0,0,0,0,0,0,0,0,0,0,0,0,0,0,0,0,0.2899,0.29,0,0.3031,0.3033,0.3035,0.3063,0.3061,0.306,0.3059,0.3018,0.3018,0.3018,0,0,0,0,0,0,0,0,0,0,0,0,0,0.2742,0.2745,0.2899,0.2901,0.2902,0.3031,0.3033,0.3036,0.3063,0.3061,0.306,0.3058,0.3018,0.3018,0.3018,0,0,0,0,0,0,0,0,0,0,0,0,0,0.284,0.2746,0.2899,0.2927,0.2931,0.303,0.3033,0.3036,0.3063,0.3061,0.3059,0.3057,0.3017,0.3018,0.3018,0.3064,0,0,0.3019,0.3019,0,0,0,0,0,0,0,0,0.2835,0.2847,0.2922,0.2926,0.293,0.3024,0.2963,0.3035,0.3064,0.3018,0.3059,0.3056,0.3002,0.3004,0.3043,0.3062,0.306,0.3019,0.302,0.302,0.302,0,0,0,0,0,0,0,0.2828,0.2841,0.2957,0.2923,0.2928,0.2957,0.2969,0.2978,0.3021,0.3022,0.3023,0.3031,0.3003,0.3043,0.3041,0.3059,0.3019,0.302,0.302,0.302,0.3109,0.3111,0,0,0,0,0,0,0.2801,0.2835,0.2952,0.296,0.287,0.2961,0.2974,0.3,0.3025,0.3027,0.3032,0.3031,0.3043,0.3041,0.304,0.3087,0.302,0.302,0.302,0.3106,0.3109,0.3111,0,0,0,0,0,0,0.2797,0.2811,0.2947,0.2895,0.2914,0.2965,0.2994,0.3004,0.3055,0.3034,0.3033,0.3074,0.3041,0.3039,0.3052,0.3085,0.302,0.3021,0.3104,0.3107,0.311,0.3186,0,0,0,0,0,0,0.2793,0.281,0.284,0.2894,0.2915,0.3029,0.2996,0.3008,0.306,0.3061,0.3069,0.3063,0.3039,0.3052,0.3053,0.3085,0.3021,0.3101,0.3105,0.3109,0.3181,0.3191,0.32,0,0,0,0,0,0.2787,0.2835,0.2842,0.2856,0.295,0.3031,0.3048,0.3078,0.3064,0.3112,0.3095,0.3064,0.3077,0.3054,0.3054,0.3087,0.3099,0.3104,0.3109,0.3176,0.3189,0.32,0,0,0,0,0,0,0.2806,0.2844,0.2851,0.2916,0.2976,0.3034,0.309,0.3097,0.3132,0.3125,0.309,0.3085,0.3099,0.3096,0.307,0.3127,0.3085,0.309,0.3136,0.3148,0.3158,0.3159,0.3021,0,0,0,0,0,0.2818,0.2871,0.2905,0.2979,0.2999,0.3049,0.3089,0.3107,0.3133,0.3151,0.3133,0.3126,0.3125,0.3136,0.3127,0.3173,0.3191,0.3196,0.3206,0.3215,0.3218,0.3297,0.3315,0.3127,0.3127,0.3127,0,0,0.2866,0.2886,0.2928,0.2987,0.3039,0.3079,0.3072,0.3148,0.3172,0.3136,0.3162,0.315,0.314,0.3171,0.3181,0.3173,0.328,0.3221,0.3228,0.3226,0.3304,0.3322,0.3339,0.313,0.313,0.3129,0,0,0.2955,0.2989,0.304,0.3074,0.3128,0.3146,0.3165,0.321,0.3224,0.3254,0.3219,0.3236,0.3239,0.3245,0.3247,0.3317,0.3314,0.3315,0.3385,0.3463,0.3479,0.3493,0.3547,0.3566,0.334,0.334,0.334,0,0.3009,0.3045,0.308,0.3113,0.3134,0.3168,0.3204,0.3241,0.3278,0.3289,0.3265,0.3286,0.3276,0.3321,0.3341,0.3338,0.3375,0.3337,0.3476,0.349,0.3504,0.3556,0.3575,0.3344,0.3344,0.3343,0.3343,0,0.3091,0.3126,0.3168,0.3199,0.3241,0.3291,0.3307,0.3343,0.3341,0.3359,0.339,0.3388,0.3405,0.3412,0.3396,0.3487,0.3479,0.3463,0.3444,0.3527,0.3577,0.3596,0.335,0.3349,0.3348,0.3347,0,0,0.3163,0.3213,0.3215,0.3222,0.3269,0.3303,0.3354,0.3396,0.3419,0.3454,0.3487,0.351,0.3516,0.352,0.3514,0.3586,0.3712,0.3576,0.3579,0.3627,0.3882,0.3739,0.3745,0.3729,0.3733,0.3736,0.388,0,0.3204,0.3252,0.3262,0.3311,0.3329,0.3356,0.3391,0.344,0.3468,0.351,0.3546,0.357,0.3557,0.3568,0.3646,0.3674,0.3764,0.3673,0.3796,0.3799,0.366,0.3763,0.3405,0.3492,0.3899,0.3902,0.3904,0,0.3219,0.3248,0.3287,0.3317,0.3327,0.3356,0.3398,0.3439,0.3521,0.3548,0.3615,0.3632,0.3727,0.3701,0.3849,0.3794,0.3856,0.3889,0.3895,0.3745,0.3691,0.3475,0.3511,0.3935,0.3933,0.393,0.3928,0,0.3175,0.3236,0.3253,0.3267,0.3326,0.3343,0.3377,0.345,0.3478,0.3582,0.3617,0.3724,0.3776,0.3876,0.3954,0.3918,0.4115,0.4071,0.4009,0.3999,0.3706,0.3663,0.4209,0.4209,0.4209,0.4208,0.4208,0,0.3151,0.3159,0.3232,0.3236,0.3255,0.3315,0.3344,0.3397,0.3483,0.3544,0.3632,0.3702,0.3829,0.3943,0.4006,0.4065,0.4173,0.4037,0.4037,0.3721,0.368,0.4062,0.4043,0.4214,0.4213,0.4212,0.4211,0,0.3071,0.3124,0.314,0.3209,0.3226,0.3238,0.3305,0.3336,0.343,0.3518,0.3556,0.3716,0.3872,0.3984,0.4157,0.4111,0.4189,0.4196,0.3804,0.3752,0.4007,0.3991,0.4119,0.4115,0.4112,0.411,0.4108,0,0.3023,0.3032,0.3095,0.3107,0.3129,0.3167,0.3194,0.3292,0.3347,0.3528,0.3575,0.3754,0.3821,0.3987,0.3976,0.4035,0.4209,0.3755,0.3604,0.4016,0.4004,0.3992,0.398,0.3262,0.3253,0.3245,0.324,0,0.2932,0.2959,0.2979,0.3017,0.3042,0.3073,0.3139,0.3165,0.3313,0.3386,0.354,0.3595,0.3708,0.3583,0.3625,0.3621,0.3695,0.3604,0.4177,0.3322,0.3214,0.32,0.3215,0.3175,0.3181,0.3186,0.3189,0.3192,0.2849,0.2844,0.2887,0.2915,0.2946,0.2976,0.2975,0.3048,0.3103,0.3119,0.3311,0.3245,0.3274,0.3105,0.3084,0.3091,0.3324,0.3194,0.3214,0.3242,0.31,0.299,0.2882,0.2887,0.2891,0.2894,0.2898,0,0.2744,0.2768,0.2788,0.2814,0.2815,0.2879,0.293,0.2862,0.287,0.2863,0.2856,0.2571,0.2432,0.2565,0.2418,0.2408,0.2363,0.2384,0.2302,0.2366,0.2424,0.2238,0.1793,0.179,0.1788,0.1785,0,0,0.2683,0.267,0.2699,0.2683,0.2707,0.268,0.2691,0.256,0.251,0.2296,0.2198,0.2155,0.2363,0.1992,0.1977,0.1881,0.2107,0.1808,0.2681,0.2642,0.2696,0.2869,0.2652,0,0,0,0,0]},{"header":{"parameterUnit":"m.s-1","parameterCategory":2,"la1":30.2991,"la2":30.254,"lo1":-89.0895,"lo2":-89.0444,"dy":0.0017,"dx":0.0017,"nx":28,"ny":28,"refTime":"2023-03-29T21:00:00:Z","depth":"2","parameterNumber":3,"parameterNumberName":"V-component_of_CURRENTS"},"data":[0,0,0,0,0,0,0,0,0,0,0,0,0,0,0,0,0,0,0,0,0,0,0,0,0,0,0,0,0,0,0,0,0,0,0,0,0,0,0,0,0,0,0,0,0,0,0,0,0,0,0,0,0,0,0,0,0,0,-0.0043,-0.0044,0,-0.0259,-0.0262,-0.0266,-0.0401,-0.04,-0.04,-0.04,-0.0682,-0.0689,-0.0697,0,0,0,0,0,0,0,0,0,0,0,0,0,0.0041,0.004,-0.0043,-0.0045,-0.0046,-0.0258,-0.0262,-0.0266,-0.0401,-0.04,-0.04,-0.04,-0.0679,-0.0688,-0.0698,0,0,0,0,0,0,0,0,0,0,0,0,0,-0.0078,0.004,-0.0043,-0.013,-0.0139,-0.0257,-0.0263,-0.0268,-0.0401,-0.04,-0.04,-0.04,-0.0676,-0.0687,-0.0699,-0.0781,0,0,-0.0735,-0.074,0,0,0,0,0,0,0,0,-0.0071,-0.0082,-0.0116,-0.0124,-0.0134,-0.0292,-0.0336,-0.0438,-0.0401,-0.0314,-0.04,-0.0399,-0.055,-0.0572,-0.063,-0.0794,-0.0806,-0.0736,-0.0743,-0.0748,-0.0751,0,0,0,0,0,0,0,-0.0062,-0.0075,-0.014,-0.0117,-0.0129,-0.023,-0.0246,-0.0358,-0.0443,-0.0322,-0.0329,-0.0334,-0.0557,-0.0618,-0.0637,-0.081,-0.0735,-0.0746,-0.0753,-0.0758,-0.0939,-0.0937,0,0,0,0,0,0,-0.0001,-0.0066,-0.0133,-0.0146,-0.0088,-0.023,-0.0249,-0.0252,-0.044,-0.0465,-0.0335,-0.034,-0.0598,-0.0623,-0.0648,-0.0662,-0.0748,-0.0759,-0.0765,-0.0941,-0.0939,-0.0936,0,0,0,0,0,0,0.0001,-0.0005,-0.0124,-0.0102,-0.0122,-0.0229,-0.0234,-0.0256,-0.0305,-0.0447,-0.0475,-0.0357,-0.0599,-0.0631,-0.0706,-0.0677,-0.0764,-0.0775,-0.0944,-0.0941,-0.0938,-0.0752,0,0,0,0,0,0,0.0005,-0.0003,0.0001,-0.0097,-0.0121,-0.018,-0.0234,-0.026,-0.0304,-0.0313,-0.0476,-0.0503,-0.0601,-0.0687,-0.0717,-0.0695,-0.0784,-0.0947,-0.0943,-0.0939,-0.0761,-0.0743,-0.0727,0,0,0,0,0,0.0008,0.0015,0.0003,-0.0006,-0.0106,-0.0179,-0.0203,-0.0286,-0.0304,-0.033,-0.0409,-0.0497,-0.0682,-0.0696,-0.0732,-0.0712,-0.0949,-0.0944,-0.0939,-0.0768,-0.0746,-0.0727,0,0,0,0,0,0,0.004,0.0001,-0.0016,-0.0024,-0.0083,-0.0196,-0.023,-0.0271,-0.036,-0.0366,-0.0491,-0.0523,-0.0573,-0.0664,-0.0675,-0.0746,-0.0823,-0.0825,-0.068,-0.0661,-0.0645,-0.0605,-0.0793,0,0,0,0,0,0.006,0.0057,-0.0001,-0.0012,-0.0033,-0.0125,-0.0166,-0.0214,-0.0294,-0.0334,-0.0425,-0.0515,-0.0586,-0.0636,-0.0724,-0.0782,-0.0846,-0.0783,-0.0766,-0.0751,-0.0739,-0.0775,-0.076,-0.092,-0.092,-0.092,0,0,0.0062,0.0047,0.0038,-0.0005,-0.0065,-0.0087,-0.0153,-0.0203,-0.0213,-0.0351,-0.0394,-0.047,-0.0585,-0.0632,-0.0663,-0.0705,-0.0741,-0.0745,-0.0732,-0.0728,-0.0768,-0.0753,-0.0739,-0.0917,-0.0918,-0.0918,0,0,0.0073,0.006,0.0061,0.0032,-0.0018,-0.0066,-0.0062,-0.0147,-0.0178,-0.0225,-0.03,-0.034,-0.048,-0.0532,-0.0582,-0.0527,-0.0646,-0.0556,-0.0454,-0.0487,-0.0474,-0.0464,-0.0529,-0.0526,-0.0551,-0.0551,-0.0551,0,0.0076,0.0086,0.0044,0.0045,0.0035,-0.0036,-0.0034,-0.0081,-0.017,-0.0174,-0.021,-0.033,-0.0425,-0.0455,-0.0426,-0.0489,-0.054,-0.0522,-0.0464,-0.0455,-0.0447,-0.0518,-0.0516,-0.0542,-0.0543,-0.0544,-0.0545,0,0.0093,0.0102,0.0098,0.0094,0.0073,0.0059,0.0023,0.0008,-0.0018,-0.0055,-0.0077,-0.0181,-0.0248,-0.0271,-0.0341,-0.0323,-0.0388,-0.0433,-0.0512,-0.042,-0.05,-0.0502,-0.0528,-0.0531,-0.0534,-0.0536,0,0,0.0106,0.0111,0.0114,0.0132,0.0109,0.0096,0.0107,0.0096,0.012,0.006,0.0085,-0.0001,-0.0039,-0.0093,-0.017,-0.0192,-0.0183,-0.0276,-0.0282,-0.0335,-0.0278,-0.0307,-0.0315,-0.0216,-0.0215,-0.0215,-0.0358,0,0.0132,0.0162,0.0161,0.0193,0.0205,0.0184,0.0205,0.0196,0.0179,0.0185,0.0125,0.01,0.0022,0.0003,-0.0024,-0.0144,-0.0179,-0.0142,-0.0366,-0.0373,-0.0404,-0.0313,-0.0272,-0.0393,-0.0361,-0.0361,-0.0361,0,0.0163,0.0186,0.0224,0.027,0.0276,0.0291,0.0335,0.0344,0.0343,0.0333,0.0318,0.0257,0.022,0.0143,0.0002,0.0029,-0.0102,-0.0197,-0.0206,-0.0298,-0.0404,-0.048,-0.04,-0.0367,-0.0366,-0.0366,-0.0366,0,0.0207,0.0241,0.0284,0.0294,0.0323,0.0355,0.0375,0.0391,0.0421,0.043,0.0446,0.0387,0.0351,0.0219,0.003,0.0014,-0.0135,-0.0198,-0.0354,-0.0361,-0.0402,-0.0412,-0.0294,-0.0294,-0.0293,-0.0293,-0.0292,0,0.025,0.0287,0.031,0.0335,0.0403,0.0411,0.0482,0.0498,0.0533,0.0585,0.0525,0.0538,0.0374,0.0264,0.008,-0.013,-0.0107,-0.0316,-0.038,-0.0337,-0.034,-0.0382,-0.0391,-0.0298,-0.0297,-0.0296,-0.0295,0,0.0287,0.03,0.0353,0.0399,0.0422,0.0471,0.0543,0.0595,0.062,0.0687,0.0697,0.0649,0.0524,0.0332,0.0106,-0.0071,-0.0272,-0.0366,-0.0314,-0.0367,-0.0498,-0.0495,-0.0549,-0.0551,-0.0553,-0.0554,-0.0555,0,0.0305,0.0334,0.0395,0.0436,0.046,0.053,0.0583,0.0631,0.0689,0.075,0.0786,0.071,0.0672,0.0338,0.0043,-0.0263,-0.0301,-0.0457,-0.0471,-0.0457,-0.0516,-0.051,-0.0506,-0.0472,-0.0472,-0.0473,-0.0473,0,0.0345,0.0363,0.0409,0.0489,0.0552,0.0625,0.0705,0.0767,0.0839,0.0908,0.0973,0.0958,0.0667,0.0392,-0.0015,-0.0217,-0.0393,-0.0474,-0.046,-0.04,-0.0392,-0.0447,-0.0443,-0.0475,-0.0475,-0.0475,-0.0475,-0.0474,0.0376,0.0416,0.048,0.0562,0.0633,0.0733,0.0813,0.0913,0.1037,0.1145,0.109,0.1063,0.074,0.0241,-0.0085,-0.0418,-0.0428,-0.0564,-0.056,-0.0557,-0.0508,-0.0501,-0.0598,-0.0599,-0.0599,-0.06,-0.06,0,0.0434,0.0484,0.0555,0.0665,0.0758,0.0778,0.091,0.1007,0.1182,0.1217,0.1259,0.0963,0.0644,0.0297,-0.0209,-0.0529,-0.0522,-0.0606,-0.0541,-0.0537,-0.0534,-0.0482,-0.0568,-0.0568,-0.0569,-0.0569,0,0,0.0473,0.0563,0.0607,0.0771,0.0841,0.0976,0.1061,0.1206,0.1271,0.1328,0.1285,0.1144,0.0724,0.0357,-0.0045,-0.0311,-0.0345,-0.0346,-0.0342,-0.0216,-0.0209,-0.0485,-0.0398,0,0,0,0,0]}],[{"header":{"parameterUnit":"m.s-1","parameterCategory":2,"la1":30.2991,"la2":30.254,"lo1":-89.0895,"lo2":-89.0444,"dy":0.0017,"dx":0.0017,"nx":28,"ny":28,"refTime":"2023-03-29T21:00:00:Z","depth":"4","parameterNumber":2,"parameterNumberName":"U-component_of_CURRENTS"},"data":[0,0,0,0,0,0,0,0,0,0,0,0,0,0,0,0,0,0,0,0,0,0,0,0,0,0,0,0,0,0,0,0,0,0,0,0,0,0,0,0,0,0,0,0,0,0,0,0,0,0,0,0,0,0,0,0,0,0,0.1021,0.1026,0,0.1235,0.1235,0.1235,0.1233,0.1233,0.1233,0.1233,0.1405,0.141,0.1414,0,0,0,0,0,0,0,0,0,0,0,0,0,0.0958,0.0954,0.102,0.1026,0.1032,0.1235,0.1235,0.1235,0.1233,0.1233,0.1233,0.1233,0.1404,0.1409,0.1415,0,0,0,0,0,0,0,0,0,0,0,0,0,0.1028,0.0953,0.1019,0.1078,0.1088,0.1235,0.1235,0.1235,0.1233,0.1233,0.1233,0.1233,0.1402,0.1409,0.1415,0.1454,0,0,0.1436,0.1439,0,0,0,0,0,0,0,0,0.1024,0.1026,0.1064,0.1075,0.1087,0.1235,0.1279,0.1317,0.1232,0.1144,0.1233,0.1233,0.1365,0.1375,0.137,0.1463,0.147,0.1437,0.1441,0.1444,0.1445,0,0,0,0,0,0,0,0.1018,0.102,0.1073,0.1071,0.1085,0.1217,0.122,0.1285,0.1226,0.1152,0.116,0.1235,0.1367,0.1363,0.1375,0.1472,0.1436,0.1442,0.1447,0.1449,0.1867,0.1874,0,0,0,0,0,0,0.1037,0.1012,0.1067,0.1083,0.1091,0.1219,0.1221,0.1161,0.1226,0.1246,0.1235,0.1235,0.1352,0.1367,0.1381,0.16,0.1443,0.145,0.1454,0.186,0.1869,0.1876,0,0,0,0,0,0,0.1032,0.1034,0.1059,0.1088,0.1104,0.122,0.1153,0.1166,0.1208,0.1296,0.1307,0.1273,0.1352,0.1372,0.1469,0.1601,0.1453,0.1459,0.1852,0.1863,0.1872,0.1931,0,0,0,0,0,0,0.1026,0.1026,0.1101,0.1083,0.1104,0.117,0.1157,0.1171,0.1267,0.1269,0.1333,0.1346,0.1354,0.1459,0.1476,0.1607,0.1464,0.1843,0.1857,0.1869,0.192,0.1942,0.1961,0,0,0,0,0,0.1021,0.1066,0.1098,0.1117,0.1157,0.1176,0.1194,0.1263,0.127,0.1293,0.1337,0.1346,0.1559,0.1466,0.1486,0.1623,0.1836,0.1853,0.1868,0.1911,0.1938,0.1961,0,0,0,0,0,0,0.1066,0.1073,0.1107,0.1152,0.1196,0.1188,0.1269,0.1291,0.1339,0.1365,0.1382,0.1399,0.1561,0.1587,0.1486,0.1798,0.1723,0.1743,0.1751,0.1776,0.1796,0.1785,0.147,0,0,0,0,0,0.1121,0.1134,0.1166,0.1203,0.1223,0.1252,0.1313,0.134,0.1361,0.1382,0.1431,0.1525,0.1639,0.1692,0.1788,0.1913,0.1861,0.2041,0.2061,0.2077,0.2092,0.2061,0.2075,0.1928,0.1928,0.1928,0,0,0.1138,0.1168,0.1174,0.1223,0.1239,0.1242,0.1273,0.1343,0.1377,0.1401,0.1476,0.1596,0.1693,0.1847,0.1927,0.1878,0.2101,0.2098,0.2109,0.2116,0.2079,0.2091,0.2102,0.1939,0.1937,0.1935,0,0,0.1139,0.119,0.1199,0.1234,0.1336,0.1327,0.1351,0.1385,0.1444,0.1538,0.1608,0.1774,0.1901,0.2008,0.2073,0.2269,0.2215,0.2367,0.2443,0.2412,0.242,0.2427,0.2371,0.2372,0.2366,0.2366,0.2366,0,0.1199,0.1189,0.1221,0.1242,0.1301,0.1338,0.1353,0.1394,0.1479,0.1566,0.1579,0.1885,0.1969,0.2177,0.2279,0.231,0.2272,0.2316,0.2424,0.243,0.2436,0.2377,0.2377,0.2371,0.237,0.237,0.2369,0,0.1167,0.1222,0.1216,0.1219,0.1271,0.1302,0.1354,0.1437,0.1522,0.1598,0.1861,0.2003,0.2194,0.2295,0.2343,0.2522,0.2475,0.2441,0.2322,0.2451,0.2385,0.2383,0.2378,0.2376,0.2375,0.2373,0,0,0.1091,0.1187,0.1188,0.123,0.1291,0.1291,0.137,0.1472,0.1546,0.1734,0.1892,0.2167,0.2321,0.2416,0.2562,0.2578,0.2604,0.2556,0.2552,0.2432,0.2519,0.2318,0.2296,0.2569,0.257,0.2571,0.2448,0,0.1069,0.1123,0.1175,0.1196,0.1217,0.1306,0.1349,0.1471,0.1602,0.1761,0.2024,0.2217,0.2341,0.2497,0.2557,0.2631,0.2609,0.264,0.2475,0.247,0.2217,0.2291,0.2574,0.2447,0.2446,0.2446,0.2446,0,0.1008,0.1075,0.1132,0.1225,0.1234,0.1247,0.1368,0.1448,0.1674,0.1818,0.2093,0.2263,0.2518,0.2528,0.2649,0.2667,0.2615,0.2595,0.2586,0.2375,0.2267,0.2306,0.2442,0.2442,0.2442,0.2443,0.2443,0,0.0933,0.1025,0.109,0.112,0.1216,0.1279,0.1328,0.1489,0.1604,0.1891,0.1982,0.2302,0.246,0.2503,0.2545,0.2602,0.2525,0.2565,0.2306,0.229,0.247,0.2464,0.2515,0.2516,0.2516,0.2516,0.2517,0,0.0884,0.0924,0.1066,0.1098,0.1154,0.1248,0.1357,0.1455,0.1672,0.1795,0.204,0.2169,0.2445,0.2465,0.2501,0.2391,0.247,0.2323,0.2248,0.2506,0.2506,0.2466,0.2462,0.2512,0.2513,0.2513,0.2514,0,0.0783,0.0888,0.0963,0.1094,0.1129,0.1178,0.1341,0.1423,0.1588,0.1764,0.1859,0.2091,0.2136,0.2237,0.2277,0.2265,0.2196,0.2079,0.2308,0.2247,0.2011,0.2013,0.1883,0.1875,0.1869,0.1863,0.1858,0,0.0749,0.0787,0.0934,0.0985,0.1052,0.1162,0.1226,0.1406,0.1489,0.1679,0.1724,0.1833,0.1968,0.1849,0.1982,0.1947,0.1911,0.1853,0.2031,0.2008,0.1948,0.1961,0.1973,0.1847,0.1845,0.1844,0.1842,0,0.0683,0.0749,0.0815,0.0921,0.0997,0.1067,0.1164,0.1212,0.141,0.154,0.1596,0.1664,0.1661,0.1774,0.1674,0.1668,0.1936,0.1784,0.1802,0.1971,0.1962,0.1913,0.1932,0.1818,0.1822,0.1824,0.1825,0,0.0635,0.0663,0.0769,0.0847,0.0933,0.0956,0.1022,0.1098,0.1196,0.1392,0.1408,0.15,0.1659,0.1609,0.1543,0.1507,0.1569,0.1581,0.1612,0.1639,0.1621,0.1578,0.1244,0,0,0,0,0,0.0593,0.0623,0.069,0.0776,0.085,0.0885,0.0969,0.1043,0.1205,0.1206,0.1321,0.1326,0.1353,0.1396,0.1321,0.1425,0.1541,0.1331,0.1564,0.1687,0.1714,0.1719,0,0,0,0,0,0,0.0566,0.0621,0.0666,0.0705,0.0741,0.0791,0.0836,0.0925,0.0928,0.1104,0.1108,0.1249,0.1257,0.1381,0.1303,0.1309,0.1428,0.1395,0.1391,0.1672,0.1696,0.1718,0.1732,0,0,0,0,0]},{"header":{"parameterUnit":"m.s-1","parameterCategory":2,"la1":30.2991,"la2":30.254,"lo1":-89.0895,"lo2":-89.0444,"dy":0.0017,"dx":0.0017,"nx":28,"ny":28,"refTime":"2023-03-29T21:00:00:Z","depth":"4","parameterNumber":3,"parameterNumberName":"V-component_of_CURRENTS"},"data":[0,0,0,0,0,0,0,0,0,0,0,0,0,0,0,0,0,0,0,0,0,0,0,0,0,0,0,0,0,0,0,0,0,0,0,0,0,0,0,0,0,0,0,0,0,0,0,0,0,0,0,0,0,0,0,0,0,0,0.0192,0.0191,0,0.0138,0.0137,0.0137,0.0144,0.0145,0.0145,0.0146,0.0212,0.0213,0.0214,0,0,0,0,0,0,0,0,0,0,0,0,0,0.0216,0.0216,0.0192,0.0191,0.019,0.0138,0.0137,0.0137,0.0144,0.0145,0.0145,0.0146,0.0211,0.0213,0.0214,0,0,0,0,0,0,0,0,0,0,0,0,0,0.0191,0.0217,0.0192,0.0186,0.0184,0.0138,0.0137,0.0137,0.0144,0.0145,0.0146,0.0146,0.0211,0.0213,0.0214,0.0205,0,0,0.0219,0.022,0,0,0,0,0,0,0,0,0.0192,0.019,0.0188,0.0186,0.0184,0.0146,0.017,0.0165,0.0143,0.0162,0.0146,0.0147,0.0199,0.0201,0.0191,0.0208,0.0211,0.022,0.0221,0.0221,0.0222,0,0,0,0,0,0,0,0.0194,0.0192,0.0173,0.0186,0.0185,0.0156,0.0154,0.0168,0.0179,0.016,0.016,0.015,0.0199,0.0189,0.0193,0.0212,0.0219,0.0221,0.0222,0.0223,0.0185,0.0183,0,0,0,0,0,0,0.0199,0.0194,0.0175,0.0171,0.0188,0.0155,0.0153,0.016,0.0177,0.0178,0.0149,0.015,0.0186,0.0191,0.0195,0.0168,0.0221,0.0223,0.0224,0.0187,0.0184,0.0182,0,0,0,0,0,0,0.02,0.0199,0.0177,0.0178,0.0173,0.0154,0.016,0.0158,0.0146,0.0166,0.0171,0.0139,0.0187,0.0193,0.022,0.0171,0.0224,0.0225,0.0189,0.0186,0.0183,0.0124,0,0,0,0,0,0,0.0202,0.02,0.0205,0.0179,0.0173,0.0158,0.0159,0.0156,0.0137,0.0139,0.016,0.0167,0.0188,0.0217,0.0222,0.0175,0.0226,0.0192,0.0188,0.0184,0.0129,0.012,0.0112,0,0,0,0,0,0.0203,0.0212,0.0206,0.0203,0.0182,0.0158,0.0152,0.0142,0.0136,0.0134,0.0154,0.0166,0.0194,0.0219,0.0224,0.0176,0.0193,0.0189,0.0184,0.0133,0.0122,0.0112,0,0,0,0,0,0,0.0226,0.0212,0.0206,0.021,0.0187,0.0158,0.0157,0.0135,0.0143,0.0154,0.0168,0.0177,0.017,0.0185,0.0211,0.0149,0.0183,0.018,0.0142,0.0132,0.0124,0.0141,0.0228,0,0,0,0,0,0.0231,0.0236,0.021,0.0212,0.0206,0.0176,0.0162,0.0153,0.0151,0.0153,0.0161,0.0164,0.015,0.0157,0.016,0.0148,0.013,0.0109,0.0101,0.0093,0.0108,0.0011,-0.0006,0.0167,0.0167,0.0167,0,0,0.0243,0.0231,0.0237,0.0216,0.0203,0.0197,0.0172,0.0159,0.0155,0.0162,0.0172,0.0145,0.0141,0.0121,0.0115,0.0133,0.0035,0.0088,0.0082,0.0101,0.0004,-0.0013,-0.0028,0.0164,0.0164,0.0165,0,0,0.0265,0.0259,0.0272,0.0255,0.0231,0.021,0.0204,0.0175,0.017,0.0168,0.0148,0.01,0.0113,0.0072,0.0059,0.0005,-0.0008,-0.0013,-0.0036,-0.0133,-0.0147,-0.0161,-0.0202,-0.0218,-0.0017,-0.0017,-0.0017,0,0.0279,0.029,0.0268,0.0269,0.0259,0.0218,0.0222,0.0206,0.0186,0.0174,0.0179,0.01,0.0084,0.0018,-0.0014,-0.0016,-0.005,0.0006,-0.0144,-0.0157,-0.017,-0.0209,-0.0226,-0.0021,-0.002,-0.002,-0.002,0,0.031,0.0314,0.0319,0.0312,0.0295,0.0292,0.0264,0.0249,0.0226,0.0194,0.0132,0.0084,0.0038,-0.0016,-0.0024,-0.0144,-0.0132,-0.0145,-0.0115,-0.0191,-0.0227,-0.0244,-0.0025,-0.0024,-0.0023,-0.0022,0,0,0.0353,0.0346,0.0349,0.0349,0.0319,0.031,0.0302,0.027,0.0255,0.0199,0.0162,0.0061,0.0007,-0.0016,-0.008,-0.0185,-0.0323,-0.0205,-0.0209,-0.0239,-0.0505,-0.0406,-0.0414,-0.0373,-0.0376,-0.0379,-0.0493,0,0.0384,0.0404,0.0386,0.0395,0.0398,0.0361,0.0353,0.0315,0.0278,0.0237,0.0133,0.0089,0.0017,-0.0021,-0.0146,-0.0269,-0.0371,-0.0288,-0.0431,-0.0434,-0.0333,-0.0433,-0.039,-0.0506,-0.0509,-0.0512,-0.0514,0,0.0414,0.0422,0.0448,0.0431,0.0431,0.0434,0.0402,0.0394,0.0323,0.0292,0.0201,0.0139,-0.0008,-0.0057,-0.0311,-0.0254,-0.0379,-0.0486,-0.0493,-0.0384,-0.0367,-0.0417,-0.0545,-0.0542,-0.054,-0.0538,-0.0536,0,0.0445,0.0456,0.048,0.0479,0.0461,0.047,0.0466,0.0411,0.041,0.0339,0.0309,0.0146,0.0084,-0.0124,-0.0317,-0.0327,-0.0583,-0.0618,-0.0645,-0.0637,-0.0663,-0.0647,-0.0807,-0.0806,-0.0806,-0.0806,-0.0805,0,0.0468,0.0484,0.0507,0.0519,0.0541,0.0522,0.0541,0.0506,0.0475,0.0457,0.0348,0.0287,0.0056,-0.01,-0.0304,-0.0501,-0.0568,-0.0655,-0.0675,-0.0683,-0.0669,-0.0674,-0.0657,-0.081,-0.0809,-0.0808,-0.0808,0,0.0483,0.0501,0.0529,0.0548,0.0557,0.0582,0.0613,0.0619,0.0583,0.0557,0.0545,0.0395,0.0193,-0.0024,-0.0329,-0.0443,-0.0664,-0.0716,-0.0662,-0.0675,-0.066,-0.0645,-0.0775,-0.0772,-0.0771,-0.0769,-0.0768,0,0.049,0.051,0.0559,0.0589,0.0606,0.0653,0.0676,0.0675,0.0673,0.0605,0.0574,0.0433,0.0306,-0.0032,-0.0268,-0.0583,-0.0633,-0.0705,-0.0742,-0.0657,-0.0664,-0.0652,-0.064,-0.0765,-0.0764,-0.0764,-0.0763,0,0.0494,0.0523,0.0551,0.0616,0.0664,0.0704,0.0734,0.0747,0.0732,0.0713,0.0604,0.0456,0.0256,-0.0006,-0.0203,-0.0456,-0.0641,-0.0687,-0.0694,-0.073,-0.0647,-0.0653,-0.0643,-0.0757,-0.0758,-0.0758,-0.0759,0,0.0497,0.0524,0.0573,0.0628,0.0688,0.0715,0.0742,0.0736,0.0741,0.0672,0.0643,0.0431,0.0329,0.0059,-0.0162,-0.0343,-0.042,-0.0481,-0.05,-0.051,-0.0392,-0.0244,-0.0258,0,0,0,0,0,0.0491,0.052,0.0574,0.0629,0.0692,0.0716,0.0747,0.0766,0.0768,0.0707,0.0681,0.0493,0.0225,0.009,-0.0083,-0.0162,-0.0466,-0.0367,-0.0549,-0.072,-0.0728,-0.0624,0,0,0,0,0,0,0.0481,0.0531,0.0565,0.062,0.0656,0.0706,0.0728,0.0729,0.0683,0.0672,0.0514,0.048,0.0189,0.032,-0.008,-0.0134,-0.0263,-0.0493,-0.0496,-0.0716,-0.0723,-0.0729,-0.0625,0,0,0,0,0]}]]